SOYUZ MS-09 is no longer on orbit SOYUZ MS-09 is classified as:
1 43493U 18051A 18353.56192024 +.00000119 +00000-0 +90778-5 0 9994 2 43493 051.6401 174.9001 0004999 160.4989 299.0086 15.54077441030502